This is the latest recevied weather packets stored in our database for station/object EA2RCU-15. If no packets are shown the sender has not sent any weather packets the latest 10 day(s).
| Time | Temp. | Humidity | Pressure | Rain* | Wind** | Luminosity | Snow |
|---|---|---|---|---|---|---|---|
| 1777908905 | 20° C | 39% | 997 hPa | 0 mm | - | - | - |
| 1777908605 | 20° C | 40% | 997 hPa | 0 mm | - | - | - |
| 1777908304 | 19.44° C | 42% | 996 hPa | 0 mm | - | - | - |
| 1777908005 | 19.44° C | 43% | 996 hPa | 0 mm | - | - | - |
| 1777907705 | 18.89° C | 42% | 996 hPa | 0 mm | - | - | - |
| 1777907405 | 18.89° C | 46% | 996 hPa | 0 mm | - | - | - |
| 1777907105 | 18.89° C | 46% | 996 hPa | 0 mm | - | - | - |
| 1777906805 | 18.89° C | 47% | 996 hPa | 0 mm | - | - | - |
| 1777906504 | 18.33° C | 50% | 997 hPa | 0 mm | - | - | - |
| 1777906205 | 18.33° C | 52% | 997 hPa | 0 mm | - | - | - |
| 1777905905 | 17.78° C | 53% | 997 hPa | 0 mm | - | - | - |
| 1777905605 | 17.78° C | 55% | 997 hPa | 0 mm | - | - | - |
| 1777905305 | 17.78° C | 57% | 997 hPa | 0 mm | - | - | - |
| 1777905005 | 17.22° C | 57% | 997 hPa | 0 mm | - | - | - |
| 1777904705 | 17.22° C | 57% | 997 hPa | 0 mm | - | - | - |
| 1777904405 | 17.22° C | 55% | 997 hPa | 0 mm | - | - | - |
| 1777904105 | 17.22° C | 53% | 997 hPa | 0 mm | - | - | - |
| 1777903805 | 17.22° C | 50% | 996 hPa | 0 mm | - | - | - |
| 1777903505 | 17.22° C | 48% | 996 hPa | 0 mm | - | - | - |
| 1777903205 | 17.78° C | 47% | 996 hPa | 0 mm | - | - | - |
| 1777902905 | 17.78° C | 45% | 996 hPa | 0 mm | - | - | - |
| 1777902605 | 18.33° C | 43% | 996 hPa | 0 mm | - | - | - |
| 1777902305 | 18.89° C | 43% | 996 hPa | 0 mm | - | - | - |
| 1777902005 | 18.33° C | 43% | 996 hPa | 0 mm | - | - | - |
| 1777901705 | 17.78° C | 44% | 996 hPa | 0 mm | - | - | - |
* Rain latest hour (hover to see other rain measurements)
** Current wind speed in m/s (hover to see current wind gust speed)